SCP
0 0 0 0 0 0 0 0 0 0 0 0 0 0 0 0 0 0 0 0 0 0 0 0 0 0 0 0 0 0 0 0 0 0 0 0 0 0 0 0 0 0 0
0 0 0 0 0 0 0 0 0 0 0 0 0 0 0 0 0 0 0 0 0 0 0 0 0 0 0 0 0 0 0 0 0 0 0 0 0 0 0 0 0 0 0
0 0 0 0 0 0 0 0 0 0 0 0 0 0 0 0 0 0 0 0 0 0 0 0 0 0 0 0 0 0 0 0 0 0 0 0 0 0 0 0 0 0 0
0 0 0 0 0 0 0 0 0 0 0 0 0 0 0 0 0 0 0 0 0 0 0 0 0 0 0 0 0 0 0 0 0 0 0 0 0 0 0 0 0 0 0
0 0 0 0 0 0 0 0 0 0 0 0 0 0 0 0 0 0 0 0 0 0 0 0 0 0 0 0 0 0 0 0 0 0 0 0 0 0 0 0 0 0 0
0 0 0 0 0 0 0 0 0 0 0 0 0 0 0 0 0 0 0 0 0 0 0 0 0 0 0 0 0 0 0 0 0 0 0 0 0 0 0 0 0 0 0
0 0 0 0 0 0 0 0 0 0 0 0 0 0 0 0 0 0 0 0 0 0 0 0 0 0 0 0 0 0 0 0 0 0 0 0 0 0 0 0 0 0 0
0 0 0 0 0 0 0 0 0 0 0 0 0 0 0 0 0 0 0 0 0 0 0 0 0 0 0 0 0 0 0 0 0 0 0 0 0 0 0 0 0 0 0
0 0 0 0 0 0 0 0 0 0 0 0 0 0 0 0 0 0 0 0 0 0 0 0 0 0 0 0 0 0 0 0 0 0 0 0 0 0 0 0 0 0 0
0 0 0 0 0 0 0 0 0 0 0 0 0 0 0 0 0 0 0 0 0 0 0 0 0 0 0 0 0 0 0 0 0 0 0 0 0 0 0 0 0 0 0
0 0 0 0 0 0 0 0 0 0 0 0 0 0 0 0 0 0 0 0 0 0 0 0 0 0 0 0 0 0 0 0 0 0 0 0 0 0 0 0 0 0 0
0 0 0 0 0 0 0 0 0 0 0 0 0 0 0 0 0 0 0 0 0 0 0 0 0 0 0 0 0 0 0 0 0 0 0 0 0 0 0 0 0 0 0
0 0 0 0 0 0 0 0 0 0 0 0 0 0 0 0 0 0 0 0 0 0 0 0 0 0 0 0 0 0 0 0 0 0 0 0 0 0 0 0 0 0 0
0 0 0 0 0 0 0 0 0 0 0 0 0 0 0 0 0 0 0 0 0 0 0 0 0 0 0 0 0 0 0 0 0 0 0 0 0 0 0 0 0 0 0
0 0 0 0 0 0 0 0 0 0 0 0 0 0 0 0 0 0 0 0 0 0 0 0 0 0 0 0 0 0 0 0 0 0 0 0 0 0 0 0 0 0 0
0 0 0 0 0 0 0 0 0 0 0 0 0 0 0 0 0 0 0 0 0 0 0 0 0 0 0 0 0 0 0 0 0 0 0 0 0 0 0 0 0 0 0
0 0 0 0 0 0 0 0 0 0 0 0 0 0 0 0 0 0 0 0 0 0 0 0 0 0 0 0 0 0 0 0 0 0 0 0 0 0 0 0 0 0 0
-0 -0 -0 0 0 0 0 0 0 0 0 0 0 0 0 0 0 0 0 0 0 0 0 0 0 0 0 0 0 0 0 0 0 0 0 0 0 0 0 0 0 0 0
0 -0 -0 -0 0 0 0 0 0 0 0 0 0 0 0 0 0 0 0 0 0 0 0 0 0 0 0 0 0 0 0 0 0 0 0 0 0 0 0 0 0 0 0
0 0 0 0 0 0 0 0 0 0 0 0 0 0 0 0 0 0 0 0 0 0 0 0 0 0 0 0 0 0 0 0 0 0 0 0 0 0 0 0 0 0 0
0 0 0 0 0 0 0 0 0 0 0 0 0 0 0 0 0 0 0 0 0 0 0 0 0 0 0 0 0 0 0 0 0 0 0 0 0 0 0 0 0 0 0
0 0 0 0 0 0 0 0 0 0 0 0 0 0 0 0 0 0 0 0 0 0 0 0 0 0 0 0 0 0 0 0 0 0 0 0 0 0 0 0 0 0 0
0 0 0 0 0 0 0 0 0 0 0 0 0 0 0 0 0 0 0 0 0 0 0 0 0 0 0 0 0 0 0 0 0 0 0 0 0 0 0 0 0 0 0
0 0 0 0 0 0 0 0 0 0 0 0 0 0 0 0 0 0 0 0 0 0 0 0 0 0 0 0 0 0 0 0 0 0 0 0 0 0 0 0 0 0 0
0 0 0 0 0 0 0 0 0 0 0 0 0 0 0 0 0 0 0 0 0 0 0 0 0 0 0 0 0 0 0 0 0 0 0 0 0 0 0 0 0 0 0
0 0 0 0 0 0 0 0 0 0 0 0 0 0 0 0 0 0 0 0 0 0 0 0 0 0 0 0 0 0 0 0 0 0 0 0 0 0 0 0 0 0 0
Wind_Speed
7 6 7 7 7 7 7 7 7 7 6 5 5 4 3 3 3 3 5 4 5 6 6 5 5 5 4 3 4 4 4 3 3 3 3 3 3 3 2 1 2 2 2
6 6 6 7 8 8 8 8 8 8 7 5 4 3 4 3 2 3 4 4 5 6 6 6 5 5 5 4 4 4 3 2 1 3 3 1 2 3 2 1 1 1 1
11 9 8 8 8 9 9 8 8 8 7 6 5 4 3 3 2 3 3 3 5 6 6 6 5 5 5 5 4 4 4 3 1 1 3 3 2 1 2 2 1 1 1
10 9 9 9 9 8 8 8 8 7 7 7 7 8 6 5 4 4 3 4 5 5 6 6 6 5 4 5 4 3 3 4 2 0 1 1 3 3 0 1 2 2 1
10 10 9 9 8 7 7 7 7 7 7 7 8 8 6 4 3 4 5 4 4 4 5 5 5 5 4 5 4 3 3 3 3 2 1 1 1 2 2 1 1 2 2
9 8 7 7 6 6 6 7 7 6 7 7 7 8 8 7 7 7 6 4 3 3 4 5 4 4 4 5 4 3 4 3 3 2 2 2 2 2 2 2 1 2 2
9 8 8 8 8 7 7 7 8 7 7 7 7 7 8 8 9 8 7 6 4 3 4 4 4 4 4 4 4 3 3 3 3 3 2 2 2 2 2 2 1 1 2
8 9 9 9 9 9 9 8 8 7 7 8 7 6 7 6 5 6 6 6 4 4 4 4 4 4 4 4 3 3 2 2 2 2 2 1 1 1 2 2 2 1 1
7 8 8 8 8 9 9 9 9 7 7 8 8 7 7 6 6 6 5 4 4 4 4 4 4 3 3 4 4 2 2 2 2 2 2 1 1 1 1 2 3 3 3
5 6 7 8 7 7 7 8 8 8 7 7 7 7 7 7 6 6 6 6 5 4 5 5 4 4 3 3 3 3 2 3 2 2 2 1 1 1 1 1 2 2 3
6 6 6 6 6 6 6 7 7 7 6 7 7 7 7 6 6 6 6 5 5 5 5 5 5 4 4 3 3 3 3 3 2 2 2 2 2 1 1 1 2 2 2
3 4 5 5 5 6 6 6 7 7 7 7 6 7 6 6 6 5 5 5 5 5 5 5 5 4 4 4 4 4 4 4 4 3 3 3 2 2 2 2 2 2 2
4 4 4 4 4 5 5 6 6 6 7 7 7 6 6 6 6 6 5 5 5 5 4 5 5 5 4 4 4 4 4 4 4 4 4 3 3 3 2 2 2 2 2
3 4 3 2 2 3 4 5 5 6 6 7 7 7 7 7 6 6 5 5 5 5 5 5 5 4 4 5 4 4 4 4 3 4 4 4 4 4 3 3 3 3 2
3 3 3 2 2 2 2 3 4 5 6 6 6 6 6 6 5 5 5 4 4 5 5 4 4 4 4 4 5 4 4 4 3 3 3 4 5 6 5 3 3 3 3
2 2 2 2 2 2 2 2 3 4 6 6 6 5 5 6 5 5 5 4 4 4 4 4 4 4 4 5 6 4 4 4 4 4 3 3 4 5 7 7 6 6 5
3 3 2 2 2 2 2 2 3 4 5 5 5 5 5 5 5 5 5 5 4 4 3 3 3 4 4 5 5 5 3 4 4 4 4 3 3 4 3 5 6 7 9
1 1 2 2 1 1 1 2 3 4 5 5 5 5 5 5 4 4 4 4 3 3 3 3 4 3 4 5 4 4 3 3 4 4 4 4 4 4 4 3 3 4 5
1 2 2 2 2 1 2 3 3 3 4 4 4 4 5 5 5 4 4 3 3 3 3 3 3 3 4 4 4 4 2 2 3 4 4 4 4 6 6 4 4 4 5
2 2 2 3 3 2 3 4 3 3 3 3 3 4 4 5 5 4 3 3 3 2 2 2 2 3 4 5 5 4 2 2 3 3 3 6 6 7 7 4 4 5 5
3 4 4 3 2 2 3 4 3 2 2 3 3 3 3 3 3 3 3 2 2 2 2 1 2 2 4 4 5 5 3 3 3 3 3 3 7 8 9 8 5 7 6
5 5 5 4 3 3 4 4 2 1 2 3 3 3 2 2 3 3 2 2 3 2 2 1 2 2 3 4 5 6 6 5 3 4 3 4 7 9 9 7 7 9 6
5 4 5 5 5 4 4 4 2 2 3 3 3 2 2 2 2 3 2 2 2 2 2 2 2 2 2 3 5 6 6 6 4 3 6 7 8 8 6 7 8 6 3
5 5 6 6 5 4 4 3 2 2 4 4 3 2 2 2 1 1 1 2 2 2 2 2 2 2 2 2 2 3 3 4 4 3 4 6 6 5 5 5 4 3 4
4 4 5 5 5 5 5 4 3 3 4 3 3 2 2 1 1 1 0 1 2 3 3 3 3 3 3 5 6 4 3 3 3 2 2 1 2 2 2 3 3 3 3
4 5 5 5 4 4 4 4 3 3 3 2 2 1 1 1 1 0 1 2 2 2 3 4 4 4 6 7 7 7 7 6 5 3 2 3 3 4 4 4 4 4 4
Wind_Direction
212 199 190 176 168 167 165 167 169 166 157 156 157 154 159 155 148 151 143 142 147 145 138 137 133 133 129 131 133 125 113 97 105 91 65 29 34 52 56 74 85 75 67
201 203 191 177 174 176 175 175 173 169 168 170 164 153 144 142 148 144 137 144 155 148 142 142 143 140 129 126 131 127 120 110 103 116 111 72 7 8 15 36 75 72 60
197 197 191 188 181 181 181 182 177 171 168 161 147 132 115 107 124 145 145 146 151 142 140 141 140 141 139 147 148 140 136 143 126 103 134 142 185 269 336 4 33 55 51
195 192 189 187 187 185 179 180 174 168 167 160 161 159 157 160 172 163 145 138 142 139 139 140 140 144 142 147 157 147 141 141 150 117 53 130 150 150 185 335 0 10 10
192 190 189 186 181 175 173 174 166 165 168 167 168 163 157 153 144 140 135 140 135 137 142 144 145 147 146 153 156 148 143 145 153 159 144 101 73 114 145 217 289 334 311
188 185 180 171 167 165 165 164 160 163 168 166 168 165 159 152 147 146 149 150 139 137 143 144 146 151 153 160 161 154 153 157 154 161 162 159 160 170 152 185 231 266 283
182 176 173 170 170 170 169 166 164 165 167 162 164 164 159 156 156 154 156 152 147 147 157 149 151 154 158 158 151 151 162 163 164 173 182 179 188 166 155 159 200 248 284
183 180 179 175 175 176 172 168 170 169 168 165 166 160 155 155 153 151 152 155 158 156 154 147 148 149 152 155 150 149 162 158 167 173 171 172 198 173 172 168 166 231 276
180 180 177 173 174 175 174 173 172 170 171 170 162 157 152 151 153 149 144 147 148 145 146 146 148 147 152 155 149 151 160 157 171 175 172 178 212 189 187 178 179 182 232
170 169 173 172 172 170 170 171 172 172 171 170 168 162 158 156 156 152 154 155 152 149 151 153 157 157 158 158 151 152 157 157 169 164 162 180 208 195 194 198 208 206 213
171 167 166 166 160 157 163 165 166 164 163 165 164 157 156 154 152 154 158 159 155 156 162 165 167 169 168 165 162 168 166 169 176 179 181 200 196 193 218 212 205 217 210
147 147 146 144 149 156 162 166 167 165 162 155 150 152 150 150 152 157 160 160 160 162 167 167 170 176 176 177 178 183 185 186 190 198 197 213 208 208 224 219 219 226 220
116 110 115 135 151 159 164 166 169 166 159 153 150 149 153 159 164 166 163 161 161 164 169 171 178 183 184 186 190 191 193 199 203 202 204 214 207 224 234 233 234 240 242
124 123 120 119 135 154 159 163 168 164 157 153 157 162 168 170 168 164 163 166 166 170 177 182 186 188 189 190 191 190 194 201 211 213 213 215 215 220 222 232 229 227 236
119 130 132 130 127 121 137 153 157 157 154 155 161 171 168 160 157 157 162 164 168 176 179 180 187 190 192 196 192 191 193 197 208 221 225 226 228 231 231 236 226 212 223
145 127 118 121 129 135 135 134 154 159 154 158 167 164 155 154 159 161 160 160 167 171 173 185 190 200 210 210 209 204 195 199 206 221 234 236 236 239 249 254 251 235 228
157 150 146 142 150 157 147 153 157 149 149 154 156 154 155 159 163 160 158 164 170 170 179 194 195 207 217 217 217 219 207 202 212 219 225 242 244 253 240 256 266 262 256
140 141 136 128 119 118 117 121 125 137 145 147 147 149 151 155 155 156 163 168 170 175 186 198 203 206 219 220 224 229 218 210 221 223 221 224 237 236 240 239 254 262 263
163 160 152 136 120 120 127 114 108 124 136 146 152 158 158 156 155 161 169 169 166 177 190 196 198 204 223 225 231 238 208 219 234 235 229 226 231 245 257 253 253 268 273
88 96 100 101 100 103 118 115 116 123 145 158 156 153 154 157 163 169 169 166 167 181 185 207 213 210 221 233 238 239 206 222 245 252 244 244 246 252 256 248 238 256 267
79 84 83 78 74 92 108 108 104 119 144 135 126 125 134 148 154 153 155 156 162 161 173 212 246 235 233 241 243 245 227 215 233 246 249 245 253 259 259 259 247 252 264
70 75 74 60 43 57 90 91 81 76 92 108 115 118 123 133 134 139 148 157 159 161 185 207 262 260 248 246 248 253 253 251 234 241 246 248 257 262 265 265 260 267 274
66 69 76 64 46 47 74 80 55 62 87 96 100 101 99 99 120 141 154 158 161 178 209 217 243 263 259 247 256 260 259 264 259 245 252 264 267 269 266 262 266 269 254
63 67 72 65 49 42 53 60 51 70 90 89 83 87 92 83 72 108 156 170 187 200 222 231 246 261 268 262 253 244 245 252 261 262 263 273 274 275 270 267 263 251 240
58 64 71 68 55 46 46 44 49 66 77 78 79 78 83 100 84 60 198 214 221 216 223 227 232 242 257 257 267 269 256 244 243 263 271 272 273 266 264 262 257 249 249
56 55 56 56 49 45 40 37 42 66 86 79 67 68 75 77 80 55 1 346 287 291 283 274 273 270 269 275 273 273 274 277 266 271 241 247 247 248 250 254 260 254 247